EW6950 Weather Reports


time (UTC)temp
C
wind
direction
speed
KPH
gust
KPH
rain 1hr
cm
rain 24hr
cm
rain mn
cm
humidity
%
barometer
mb
20180625183342 18 20 4.8 8.0 0.00 0.00 0.00 67 1023.5
20180625182841 18 36 4.8 0.0 0.00 0.00 0.00 67 1023.4
20180625182609 18 36 4.8 0.0 0.00 0.00 0.00 67 1023.4
20180625182353 19 36 4.8 0.0 0.00 0.00 0.00 66 1023.4
20180625182204 19 98 4.8 8.0 0.00 0.00 0.00 67 1023.5
20180625181704 19 55 4.8 9.7 0.00 0.00 0.00 66 1023.4
20180625181205 19 125 4.8 9.7 0.00 0.00 0.00 66 1023.4
20180625180705 19 71 3.2 8.0 0.00 0.00 0.00 66 1023.4
20180625180205 19 92 3.2 9.7 0.00 0.00 0.00 67 1023.4
20180625175704 19 67 4.8 9.7 0.00 0.00 0.00 67 1023.4
20180625175204 19 38 4.8 8.0 0.00 0.00 0.00 67 1023.4
20180625174705 19 55 4.8 8.0 0.00 0.00 0.00 66 1023.5
20180625174205 19 36 4.8 8.0 0.00 0.00 0.00 66 1023.4
20180625173704 19 66 4.8 9.7 0.00 0.00 0.00 64 1023.4
20180625173202 20 15 4.8 11.3 0.00 0.00 0.00 64 1023.5
20180625172702 20 24 4.8 11.3 0.00 0.00 0.00 62 1023.5
20180625172201 20 20 4.8 11.3 0.00 0.00 0.00 60 1023.5
20180625171700 21 91 4.8 11.3 0.00 0.00 0.00 61 1023.5
20180625171201 20 5 3.2 11.3 0.00 0.00 0.00 61 1023.5
20180625170701 20 329 3.2 11.3 0.00 0.00 0.00 60 1023.4
20180625170201 20 318 3.2 11.3 0.00 0.00 0.00 61 1023.4
20180625165658 20 323 4.8 11.3 0.00 0.00 0.00 64 1023.5
20180625165159 19 289 4.8 11.3 0.00 0.00 0.00 66 1023.5
20180625164659 19 20 3.2 11.3 0.00 0.00 0.00 67 1023.4
20180625164159 19 16 4.8 8.0 0.00 0.00 0.00 66 1023.4
20180625163657 19 331 4.8 12.9 0.00 0.00 0.00 67 1023.4
20180625163157 19 347 6.4 14.5 0.00 0.00 0.00 66 1023.4
20180625162658 19 14 4.8 14.5 0.00 0.00 0.00 66 1023.4
20180625162157 20 355 4.8 12.9 0.00 0.00 0.00 64 1023.5
20180625161656 20 309 4.8 12.9 0.00 0.00 0.00 63 1023.5
20180625161156 20 0 4.8 11.3 0.00 0.00 0.00 63 1023.5
20180625160658 20 23 4.8 12.9 0.00 0.00 0.00 64 1023.5
20180625160156 19 24 4.8 12.9 0.00 0.00 0.00 65 1023.5
20180625155656 19 311 4.8 12.9 0.00 0.00 0.00 67 1023.6
20180625155156 19 44 6.4 12.9 0.00 0.00 0.00 66 1023.7
20180625154654 19 327 6.4 16.1 0.00 0.00 0.00 66 1023.7
20180625154154 19 343 6.4 16.1 0.00 0.00 0.00 66 1023.6
20180625153655 20 318 6.4 14.5 0.00 0.00 0.00 66 1023.7
20180625153155 20 57 6.4 19.3 0.00 0.00 0.00 64 1023.6
20180625152656 20 290 6.4 19.3 0.00 0.00 0.00 63 1023.6
20180625152155 20 327 4.8 14.5 0.00 0.00 0.00 65 1023.6
20180625151655 20 326 4.8 14.5 0.00 0.00 0.00 65 1023.6
20180625151154 20 325 6.4 12.9 0.00 0.00 0.00 63 1023.7
20180625150654 20 299 6.4 19.3 0.00 0.00 0.00 62 1023.6
20180625150154 20 47 4.8 19.3 0.00 0.00 0.00 62 1023.6
20180625145652 20 32 4.8 14.5 0.00 0.00 0.00 64 1023.5
20180625145153 20 41 4.8 14.5 0.00 0.00 0.00 63 1023.6
20180625144653 20 331 6.4 16.1 0.00 0.00 0.00 64 1023.6
20180625144153 20 47 6.4 16.1 0.00 0.00 0.00 61 1023.7
20180625143653 20 315 6.4 16.1 0.00 0.00 0.00 61 1023.6
20180625143151 20 335 4.8 14.5 0.00 0.00 0.00 61 1023.5
20180625142650 20 31 4.8 14.5 0.00 0.00 0.00 62 1023.5
20180625142151 20 21 6.4 14.5 0.00 0.00 0.00 61 1023.6
20180625141651 20 320 4.8 14.5 0.00 0.00 0.00 62 1023.6
20180625141150 20 355 6.4 14.5 0.00 0.00 0.00 63 1023.6
20180625140651 20 21 6.4 17.7 0.00 0.00 0.00 63 1023.5
20180625140150 20 15 8.0 17.7 0.00 0.00 0.00 61 1023.5
20180625135651 20 57 6.4 16.1 0.00 0.00 0.00 60 1023.5
20180625135151 20 22 6.4 16.1 0.00 0.00 0.00 64 1023.5
20180625134651 20 0 6.4 16.1 0.00 0.00 0.00 62 1023.5
20180625134151 20 36 6.4 16.1 0.00 0.00 0.00 61 1023.5
20180625133651 20 46 6.4 14.5 0.00 0.00 0.00 62 1023.6
20180625133151 21 51 4.8 14.5 0.00 0.00 0.00 64 1023.5
20180625132651 20 307 6.4 14.5 0.00 0.00 0.00 64 1023.6
20180625132151 20 327 6.4 14.5 0.00 0.00 0.00 63 1023.6
20180625131650 20 60 8.0 16.1 0.00 0.00 0.00 63 1023.6
20180625131148 20 17 8.0 16.1 0.00 0.00 0.00 62 1023.6
20180625130649 20 287 8.0 20.9 0.00 0.00 0.00 63 1023.5
20180625130148 20 52 8.0 20.9 0.00 0.00 0.00 60 1023.6
20180625125648 20 322 6.4 16.1 0.00 0.00 0.00 64 1023.5
20180625125148 20 316 6.4 14.5 0.00 0.00 0.00 66 1023.6
20180625124647 19 351 6.4 14.5 0.00 0.00 0.00 66 1023.7
20180625124147 19 17 4.8 14.5 0.00 0.00 0.00 68 1023.6
20180625123646 19 320 6.4 14.5 0.00 0.00 0.00 68 1023.6
20180625123148 19 12 6.4 14.5 0.00 0.00 0.00 67 1023.6
20180625122644 20 10 4.8 14.5 0.00 0.00 0.00 66 1023.6
20180625122145 20 12 4.8 16.1 0.00 0.00 0.00 67 1023.6
20180625121644 19 333 4.8 16.1 0.00 0.00 0.00 67 1023.6
20180625121144 19 50 4.8 9.7 0.00 0.00 0.00 68 1023.5
20180625120645 19 39 4.8 12.9 0.00 0.00 0.00 69 1023.5
20180625120144 19 51 4.8 12.9 0.00 0.00 0.00 70 1023.5
20180625115644 19 26 4.8 12.9 0.00 0.00 0.00 67 1023.5
20180625115144 19 12 4.8 12.9 0.00 0.00 0.00 68 1023.4
20180625114644 20 346 4.8 12.9 0.00 0.00 0.00 67 1023.5
20180625114146 19 317 4.8 12.9 0.00 0.00 0.00 69 1023.4
20180625113644 19 22 4.8 14.5 0.00 0.00 0.00 69 1023.5
20180625113145 18 46 4.8 14.5 0.00 0.00 0.00 68 1023.5
20180625112645 18 304 4.8 17.7 0.00 0.00 0.00 68 1023.5
20180625112145 19 5 6.4 17.7 0.00 0.00 0.00 65 1023.5
20180625111645 20 32 4.8 14.5 0.00 0.00 0.00 64 1023.5
20180625111144 20 111 4.8 11.3 0.00 0.00 0.00 67 1023.5
20180625110644 19 350 4.8 11.3 0.00 0.00 0.00 67 1023.6
20180625110144 19 46 4.8 12.9 0.00 0.00 0.00 67 1023.6
20180625105644 19 355 4.8 12.9 0.00 0.00 0.00 67 1023.6
20180625105144 19 298 4.8 16.1 0.00 0.00 0.00 68 1023.7
20180625104644 19 5 4.8 16.1 0.00 0.00 0.00 68 1023.6
20180625104144 18 318 4.8 12.9 0.00 0.00 0.00 69 1023.6
20180625103645 18 279 4.8 12.9 0.00 0.00 0.00 69 1023.6
20180625103144 18 5 3.2 8.0 0.00 0.00 0.00 70 1023.6
20180625102642 18 307 3.2 11.3 0.00 0.00 0.00 69 1023.6
20180625102140 18 302 3.2 11.3 0.00 0.00 0.00 71 1023.7
20180625101640 18 315 4.8 9.7 0.00 0.00 0.00 71 1023.7
20180625101138 18 69 3.2 9.7 0.00 0.00 0.00 71 1023.7
20180625100638 18 49 3.2 14.5 0.00 0.00 0.00 71 1023.8
20180625100136 18 327 4.8 14.5 0.00 0.00 0.00 72 1023.8
20180625095636 17 315 4.8 11.3 0.00 0.00 0.00 71 1023.8
20180625095136 18 304 3.2 9.7 0.00 0.00 0.00 70 1023.7
20180625094636 17 310 3.2 9.7 0.00 0.00 0.00 71 1023.8
20180625094136 17 5 4.8 14.5 0.00 0.00 0.00 70 1023.8
20180625093636 17 323 4.8 14.5 0.00 0.00 0.00 71 1023.8
20180625093136 17 302 4.8 12.9 0.00 0.00 0.00 72 1023.7
20180625092635 17 300 4.8 11.3 0.00 0.00 0.00 72 1023.8
20180625092134 17 20 4.8 11.3 0.00 0.00 0.00 72 1023.8
20180625091634 17 327 4.8 11.3 0.00 0.00 0.00 72 1023.8
20180625091133 17 321 4.8 12.9 0.00 0.00 0.00 74 1023.8
20180625090632 17 294 4.8 12.9 0.00 0.00 0.00 74 1023.8
20180625090132 16 281 4.8 12.9 0.00 0.00 0.00 74 1023.8
20180625085629 16 325 4.8 12.9 0.00 0.00 0.00 74 1023.7
20180625085130 16 43 4.8 9.7 0.00 0.00 0.00 73 1023.6
20180625084630 17 341 4.8 9.7 0.00 0.00 0.00 73 1023.6
20180625084130 16 103 3.2 16.1 0.00 0.00 0.00 75 1023.6
20180625083630 16 0 4.8 16.1 0.00 0.00 0.00 75 1023.5
20180625083130 16 22 4.8 9.7 0.00 0.00 0.00 78 1023.5
20180625082630 16 284 4.8 12.9 0.00 0.00 0.00 78 1023.4
20180625082130 15 28 4.8 12.9 0.00 0.00 0.00 79 1023.4
20180625081630 15 348 4.8 12.9 0.00 0.00 0.00 78 1023.5
20180625081130 15 16 4.8 12.9 0.00 0.00 0.00 78 1023.4
20180625080630 15 308 4.8 11.3 0.00 0.00 0.00 79 1023.4
20180625080129 15 27 4.8 9.7 0.00 0.00 0.00 79 1023.5
20180625075628 15 13 4.8 14.5 0.00 0.00 0.00 80 1023.4
20180625075128 15 17 4.8 14.5 0.00 0.00 0.00 80 1023.4
20180625074628 15 334 3.2 8.0 0.00 0.00 0.00 80 1023.3
20180625074127 15 39 3.2 8.0 0.00 0.00 0.00 80 1023.3
20180625073629 15 23 3.2 8.0 0.00 0.00 0.00 80 1023.3
20180625073127 15 42 4.8 9.7 0.00 0.00 0.00 79 1023.2
20180625072629 15 39 4.8 12.9 0.00 0.00 0.00 80 1023.2
20180625072128 15 17 4.8 12.9 0.00 0.00 0.00 79 1023.1
20180625071627 15 11 4.8 16.1 0.00 0.00 0.00 79 1023.1
20180625071127 15 301 4.8 16.1 0.00 0.00 0.00 79 1023.2
20180625070626 15 345 3.2 8.0 0.00 0.00 0.00 80 1023.1
20180625070126 15 337 3.2 8.0 0.00 0.00 0.00 80 1023.1
20180625065625 15 323 4.8 12.9 0.00 0.00 0.00 79 1023.1
20180625065125 15 319 4.8 12.9 0.00 0.00 0.00 79 1023.0
20180625064626 15 310 6.4 14.5 0.00 0.00 0.00 78 1023.0
20180625064126 15 26 6.4 16.1 0.00 0.00 0.00 78 1022.9
20180625063626 15 33 6.4 17.7 0.00 0.00 0.00 77 1022.8
20180625063125 15 31 4.8 17.7 0.00 0.00 0.00 76 1022.7
20180625062623 15 355 4.8 17.7 0.00 0.00 0.00 78 1022.7
20180625062124 15 15 6.4 19.3 0.00 0.00 0.00 78 1022.7
20180625061624 15 15 4.8 19.3 0.00 0.00 0.00 79 1022.6
20180625061124 15 20 4.8 14.5 0.00 0.00 0.00 81 1022.6
20180625060623 15 51 4.8 14.5 0.00 0.00 0.00 81 1022.6
20180625060123 15 309 3.2 9.7 0.00 0.00 0.00 82 1022.5
20180625055623 15 63 3.2 8.0 0.00 0.00 0.00 83 1022.6
20180625055123 15 0 3.2 6.4 0.00 0.00 0.00 84 1022.5
20180625054624 15 336 3.2 8.0 0.00 0.00 0.00 85 1022.6
20180625054123 14 316 3.2 8.0 0.00 0.00 0.00 86 1022.6
20180625053623 14 312 3.2 8.0 0.00 0.00 0.00 87 1022.5
20180625053121 13 312 3.2 8.0 0.00 0.00 0.00 89 1022.5
20180625052621 13 322 3.2 6.4 0.00 0.00 0.00 89 1022.5
20180625052121 13 315 3.2 6.4 0.00 0.00 0.00 89 1022.5
20180625051621 13 317 3.2 6.4 0.00 0.00 0.00 89 1022.5
20180625051121 13 321 3.2 6.4 0.00 0.00 0.00 90 1022.4
20180625050622 13 320 3.2 6.4 0.00 0.00 0.00 90 1022.4
20180625050122 12 315 3.2 6.4 0.00 0.00 0.00 91 1022.4
20180625045621 12 315 1.6 6.4 0.00 0.00 0.00 91 1022.2
20180625045121 12 321 1.6 4.8 0.00 0.00 0.00 91 1022.2
20180625044622 12 321 1.6 4.8 0.00 0.00 0.00 91 1022.3
20180625044121 12 321 1.6 4.8 0.00 0.00 0.00 91 1022.3
20180625043622 12 321 1.6 4.8 0.00 0.00 0.00 91 1022.3
20180625043122 12 321 1.6 3.2 0.00 0.00 0.00 91 1022.3
20180625042622 12 321 1.6 3.2 0.00 0.00 0.00 91 1022.3
20180625042122 12 321 0.0 3.2 0.00 0.00 0.00 90 1022.3
20180625041622 12 319 1.6 3.2 0.00 0.00 0.00 90 1022.2
20180625041122 12 319 1.6 3.2 0.00 0.00 0.00 90 1022.2
20180625040622 11 319 1.6 3.2 0.00 0.00 0.00 90 1022.2
20180625040121 11 319 1.6 3.2 0.00 0.00 0.00 89 1022.2
20180625035622 11 319 0.0 3.2 0.00 0.00 0.00 89 1022.2
20180625035122 12 319 0.0 3.2 0.00 0.00 0.00 88 1022.1
20180625034621 12 319 1.6 3.2 0.00 0.00 0.00 88 1022.0
20180625034122 12 319 1.6 3.2 0.00 0.00 0.00 88 1022.0
20180625033621 12 319 1.6 3.2 0.00 0.00 0.00 88 1022.1
20180625033121 12 319 1.6 3.2 0.00 0.00 0.00 87 1022.0
20180625032621 12 319 1.6 3.2 0.00 0.00 0.00 87 1021.8
20180625032121 12 319 1.6 3.2 0.00 0.00 0.00 87 1021.8
20180625031622 12 319 1.6 3.2 0.00 0.00 0.00 87 1021.8
20180625031122 12 319 1.6 3.2 0.00 0.00 0.00 87 1021.7
20180625030621 12 318 1.6 3.2 0.00 0.00 0.00 87 1021.7
20180625030121 12 318 1.6 3.2 0.00 0.00 0.00 87 1021.7
20180625025621 12 318 1.6 4.8 0.00 0.00 0.00 87 1021.7
20180625025121 12 318 1.6 4.8 0.00 0.00 0.00 87 1021.6
20180625024622 13 316 1.6 4.8 0.00 0.00 0.00 86 1021.6
20180625024121 13 316 3.2 4.8 0.00 0.00 0.00 86 1021.7
20180625023621 13 338 3.2 6.4 0.00 0.00 0.00 86 1021.7
20180625023121 13 321 1.6 6.4 0.00 0.00 0.00 86 1021.5
20180625022621 13 309 1.6 3.2 0.00 0.00 0.00 85 1021.6
20180625022122 13 308 1.6 3.2 0.00 0.00 0.00 85 1021.7
20180625021621 13 307 1.6 3.2 0.00 0.00 0.00 85 1021.6
20180625021121 13 308 1.6 3.2 0.00 0.00 0.00 85 1021.6
20180625020623 13 308 1.6 3.2 0.00 0.00 0.00 85 1021.5
20180625020121 13 308 1.6 3.2 0.00 0.00 0.00 85 1021.5
20180625015620 13 308 1.6 3.2 0.00 0.00 0.00 84 1021.6
20180625015120 13 307 1.6 4.8 0.00 0.00 0.00 84 1021.6
20180625014619 13 305 1.6 4.8 0.00 0.00 0.00 84 1021.7
20180625014118 13 306 1.6 3.2 0.00 0.00 0.00 84 1021.6
20180625013617 13 304 1.6 6.4 0.00 0.00 0.00 84 1021.5
20180625013115 13 303 3.2 6.4 0.00 0.00 0.00 83 1021.6
20180625012612 13 308 3.2 8.0 0.00 0.00 0.00 83 1021.6
20180625012111 13 309 3.2 8.0 0.00 0.00 0.00 83 1021.5
20180625011611 13 321 1.6 4.8 0.00 0.00 0.00 83 1021.5
20180625011111 13 321 1.6 3.2 0.00 0.00 0.00 82 1021.6
20180625010611 13 321 1.6 4.8 0.00 0.00 0.00 82 1021.6
20180625010111 13 321 1.6 4.8 0.00 0.00 0.00 82 1021.5
20180625005607 13 321 1.6 4.8 0.00 0.00 0.00 82 1021.5
20180625005110 13 321 1.6 4.8 0.00 0.00 0.00 81 1021.5
20180625004607 13 317 3.2 6.4 0.00 0.00 0.00 81 1021.6
20180625004111 14 314 3.2 6.4 0.00 0.00 0.00 81 1021.6
20180625003607 14 311 3.2 8.0 0.00 0.00 0.00 81 1021.7
20180625003110 14 318 3.2 8.0 0.00 0.00 0.00 81 1021.7
20180625002606 14 298 3.2 8.0 0.00 0.00 0.00 81 1021.8
20180625002111 14 318 3.2 8.0 0.00 0.00 0.00 81 1021.8
20180625001607 14 311 3.2 6.4 0.00 0.00 0.00 80 1021.8
20180625001110 14 311 1.6 6.4 0.00 0.00 0.00 80 1021.8
20180625000607 14 304 3.2 8.0 0.00 0.00 0.00 80 1021.7
20180625000109 14 316 3.2 8.0 0.00 0.00 0.00 80 1021.7
20180624235604 14 316 3.2 9.7 0.00 0.00 0.00 80 1021.7
20180624235108 14 319 3.2 9.7 0.00 0.00 0.00 80 1021.7
20180624234605 14 300 3.2 6.4 0.00 0.00 0.00 79 1021.7
20180624234108 14 319 3.2 4.8 0.00 0.00 0.00 79 1021.7
20180624233605 14 313 3.2 4.8 0.00 0.00 0.00 79 1021.7
20180624233108 14 312 1.6 4.8 0.00 0.00 0.00 79 1021.7
20180624232604 14 311 1.6 9.7 0.00 0.00 0.00 79 1021.7
20180624232108 14 311 1.6 9.7 0.00 0.00 0.00 79 1021.8
20180624231605 14 317 1.6 3.2 0.00 0.00 0.00 79 1021.8
20180624231107 14 317 1.6 3.2 0.00 0.00 0.00 79 1022.0
20180624230603 15 317 1.6 3.2 0.00 0.00 0.00 79 1022.0
20180624230105 15 317 1.6 4.8 0.00 0.00 0.00 78 1022.0
20180624225603 15 317 1.6 4.8 0.00 0.00 0.00 78 1021.8
20180624225106 15 317 1.6 4.8 0.00 0.00 0.00 78 1021.8
20180624224603 15 317 1.6 4.8 0.00 0.00 0.00 78 1021.7
20180624224106 15 321 1.6 3.2 0.00 0.00 0.00 78 1021.7
20180624223603 15 320 1.6 3.2 0.00 0.00 0.00 78 1021.7
20180624223106 15 320 1.6 3.2 0.00 0.00 0.00 78 1021.7
20180624222603 15 319 1.6 4.8 0.00 0.00 0.00 78 1021.7
20180624222106 15 317 1.6 4.8 0.00 0.00 0.00 78 1021.7
20180624221601 15 317 1.6 4.8 0.00 0.00 0.00 78 1021.8
20180624221103 15 311 1.6 4.8 0.00 0.00 0.00 78 1021.8
20180624220601 14 305 3.2 4.8 0.00 0.00 0.00 78 1021.8
20180624220104 14 306 3.2 6.4 0.00 0.00 0.00 79 1022.0
20180624215557 14 306 1.6 6.4 0.00 0.00 0.03 79 1021.8
20180624215100 14 308 1.6 3.2 0.00 0.00 0.03 79 1022.1
20180624214558 14 308 1.6 3.2 0.00 0.00 0.03 80 1022.1
20180624214100 14 308 1.6 3.2 0.00 0.00 0.03 80 1021.8
20180624213557 14 308 1.6 3.2 0.00 0.00 0.03 80 1021.8
20180624213059 14 308 1.6 3.2 0.00 0.00 0.03 80 1021.7
20180624212558 14 308 1.6 3.2 0.00 0.00 0.03 80 1021.8
20180624212059 14 308 1.6 4.8 0.00 0.00 0.03 80 1021.7
20180624211556 13 308 1.6 4.8 0.00 0.00 0.03 80 1021.7
20180624211055 13 0.0 0.0 0.00 0.00 0.03 79
20180624202554 15 304 1.6 1.6 0.00 0.00 0.03 74 1021.5
20180624202108 15 305 3.2 0.0 0.00 0.00 0.03 73 1021.4
20180624201812 15 304 3.2 8.0 0.00 0.03 0.03 73 1021.4
20180624201311 15 305 3.2 8.0 0.00 0.03 0.03 73 1021.4
20180624200811 15 294 3.2 6.4 0.00 0.03 0.03 73 1021.3
20180624200311 15 320 3.2 6.4 0.00 0.03 0.03 72 1021.3
20180624195809 15 329 3.2 8.0 0.00 0.03 0.03 72 1021.2
20180624195306 15 302 3.2 8.0 0.00 0.03 0.03 72 1021.1
20180624194807 15 299 3.2 6.4 0.00 0.03 0.03 71 1021.1
20180624194307 15 308 3.2 4.8 0.00 0.03 0.03 71 1021.1
20180624193807 16 311 3.2 4.8 0.00 0.03 0.03 70 1021.2
20180624193307 16 318 3.2 6.4 0.00 0.03 0.03 70 1021.1
20180624192808 16 317 3.2 8.0 0.00 0.03 0.03 69 1021.1